Location: All Nations United Methodist Church
(33.0215°N, 96.7483°W)
Time: 15:02:18
(UTC+00:00)

Meteor 1-11 - Pass Details

Date: 24 January 2021
Orbit: 840 x 887 km, 81.2° (Epoch: 06 March)

Event Time Altitude Azimuth Distance (km) Brightness Sun altitude
Rises 12:54:40 0° 346° (NNW) 3,400 7.0 -7.2°
Reaches altitude 10° 12:57:07 10° 342° (NNW) 2,461 6.3 -6.7°
Maximum altitude 13:02:32 55° 266° (W) 1,003 4.3 -5.6°
Drops below altitude 10° 13:07:57 10° 189° (S) 2,457 6.8 -4.5°
Sets 13:10:24 0° 185° (S) 3,393 7.5 -4.0°
